Regional Weather Roundup
Issued by NWS Upton, NY

Current Version | Previous Version | Graphics & Text | Print | Product List | Glossary Off
Versions: 1 2 3 4 5 6 7 8 9 10 11 12 13 14 15 16 17 18 19 20 21 22 23 24 25 26 27 28 29 30 31 32 33 34 35 36 37 38 39 40 41 42 43 44 45 46 47 48 49 50

000
ASUS41 KOKX 280608
RWROKX

REGIONAL WEATHER ROUNDUP
NATIONAL WEATHER SERVICE NEW YORK NY
200 AM EDT THU MAY 28 2015

NOTE: "FAIR" INDICATES FEW OR NO CLOUDS BELOW 12,000 FEET WITH NO
SIGNIFICANT WEATHER AND/OR OBSTRUCTIONS TO VISIBILITY.

NYZ071-072-176-178-NJZ106-104-280700-
NEW YORK CITY METRO AREA


CITY           SKY/WX    TMP DP  RH WIND       PRES   REMARKS
CENTRAL PARK   MOCLDY    71  66  84 W6        30.15F
LAGUARDIA APRT MOCLDY    70  62  76 SE3       30.12S
KENNEDY INTL   CLOUDY    60  57  89 S7        30.14F
NEWARK/LIBERTY MOCLDY    71  67  87 SW6       30.13S
BRNX BOT. GARD   N/A     64  63  94 E2        30.15S
TETERBORO      MOCLDY    72  66  83 CALM      30.12R
$$

NYZ177-179-078>081-280700-
LONG ISLAND NEW YORK

CITY           SKY/WX    TMP DP  RH WIND       PRES   REMARKS
FARMINGDALE    PTCLDY    64  60  87 SW12      30.15S
ISLIP          PTCLDY    64  60  87 SW13      30.14S
SHIRLEY        PTCLDY    64  59  83 SW9G20    30.16F
WESTHAMPTON    PTCLDY    61  59  93 SW8       30.17F
MONTAUK POINT    N/A     60  57  89 VRB7      30.17F
$$

NYZ052-065-067-280700-
HUDSON VALLEY

CITY           SKY/WX    TMP DP  RH WIND       PRES   REMARKS
WHITE PLAINS   PTCLDY    64  62  93 CALM      30.14R
NEWBURGH       CLEAR     66  66 100 CALM      30.13S
MONTGOMERY     CLOUDY    67  67 100 VRB5      30.11S FOG
POUGHKEEPSIE   MOCLDY    65  63  93 CALM      30.11R
ALBANY         MOCLDY    68  65  90 S9        30.07S
$$

NJZ001-105-106-008-010-013-015-019>022-104-280700-
NEW JERSEY

CITY           SKY/WX    TMP DP  RH WIND       PRES   REMARKS
NEWARK/LIBERTY MOCLDY    71  67  87 SW6       30.13S
TETERBORO      MOCLDY    72  66  83 CALM      30.12R
CALDWELL       CLOUDY    69  67  93 CALM      30.14R
MORRISTOWN     CLOUDY    70  68  94 CALM      30.13S
SOMERVILLE     FOG       66  64  93 CALM      30.12S VSB 3/4
SUSSEX         CLOUDY    68  66  93 SW3       30.14S FOG
ANDOVER          N/A     65  65 100 CALM      30.14S
TRENTON        PTCLDY    69  67  93 S6        30.13F
MILLVILLE      PTCLDY    69  66  90 VRB3      30.15S
ATLANTIC CITY  CLEAR     66  62  87 S7        30.16F
WRIGHTSTOWN    MOCLDY    67  66  96 S7        30.11F
TOMS RIVER     PTCLDY   N/A N/A N/A S7        30.15S
BELMAR         MOCLDY    70  61  73 SW7       30.14F
$$

PAZ047>061-062-071-280700-
EASTERN PENNSYLVANIA

CITY           SKY/WX    TMP DP  RH WIND       PRES   REMARKS
PHILADELPHIA   PTCLDY    72  68  87 S7        30.14F
ALLENTOWN      FOG       64  62  93 CALM      30.14S VSB 1/4
SCRANTON       CLEAR     65  62  90 SE3       30.12F FOG
$$

CTZ002-004>006-009-010-012-RIZ004-006-007-MAZ004-011-015-280700-
SOUTHERN NEW ENGLAND
 IN CT

CITY           SKY/WX    TMP DP  RH WIND       PRES   REMARKS
BRADLEY INTL   CLOUDY    66  63  90 S10       30.11S
HARTFORD       CLOUDY    66  62  87 S6        30.13R
DANBURY        CLOUDY    67  63  87 SW6       30.15R FOG
WTRBRY/OXFORD  CLOUDY    64  59  82 S3        30.16S
BRIDGEPORT     PTCLDY    65  61  87 SW5       30.14R
MERIDEN        MOCLDY    64  60  87 CALM      30.14S
NEW HAVEN      MOCLDY    63  59  87 CALM      30.14S
CHESTER        FAIR      63  61  94 SW8       30.16S
GROTON         PTCLDY    62  58  86 S3        30.15S
WILLIMANTIC    CLOUDY    67  61  81 S5        30.15R

 IN RI

CITY           SKY/WX    TMP DP  RH WIND       PRES   REMARKS
PROVIDENCE     MOCLDY    65  59  81 S10       30.15F
BLOCK ISLAND   PTCLDY    57  54  88 SW16      30.18S
WESTERLY       PTCLDY    60  57  89 S9        30.17S

 IN MA

CITY           SKY/WX    TMP DP  RH WIND       PRES   REMARKS
BOSTON         CLOUDY    66  60  81 SW15      30.11S
WORCESTER      CLOUDY    65  61  87 SW13      30.14R
WESTFIELD      CLOUDY    67  64  90 S8        30.11S
PROVINCETOWN   PTCLDY    61  57  88 SW18G24   30.15S
NANTUCKET      PTCLDY    60  57  89 S13       30.21F
$$

ANZ330-335-338-340-345-350-353-355-280700-
COASTAL MARINE OBSERVATIONS


STATION/POSITION TIME  SKY/WX   TEMP    WIND        PRES    VSBY  WAVE
                                AIR SEA DIR/SP/G                  HT/PER
                 (UTC)          (F)     (DEG/KT/KT) (MB)    (MI)  (FT/S)
NY HARB ENTRANCE 0550            58 50  210/ 16/ 17 1020.0          4/ 6
4S FIRE IS       0503               56                N/A           5/ 6
20S FIRE ISLAND  0550            61 57  200/ 17/ 19 1020.8          5/ 6
GREAT SOUTH BAY  0530            63 67  240/ 16/ 19   N/A
23SW MTP         0550            59 54  210/ 16/ 17 1021.4          4/ 6
HUDSON CANYON    NOT AVBL
KINGS POINT      0500            65 61  180/  8/ 10 1019.8
CENTRAL LI SOUND 0515            62 56  200/ 12/ 16   N/A
EASTERN LI SOUND 0500            60     190/  6/ 10   N/A
ROBBINS REEF     0500            67     170/ 10/ 11 1019.1
$$


>>>>>>>>>>>>>>>>>>>>>>>>>>>> KEY <<<<<<<<<<<<<<<<<<<<<<<<<<<
>                                                          <
>     SKY/WX - SKY CONDITION/PRESENT WEATHER               <
>     TMP    - TEMPERATURE IN FAHRENHEIT                   <
>     DP     - DEWPOINT IN FAHRENHEIT                      <
>     RH     - RELATIVE HUMIDITY IN PERCENT                <
>     WIND   - DIRECTION AND SPEED IN MPH                  <
>     PRES   - MEAN SEA LEVEL PRESSURE IN INCHES OF HG     <
>     WCI    - WIND CHILL INDEX                            <
>     VSB    - VISIBILITY IN MILES                         <
>     HX     - HEAT INDEX                                  <
>     TC     - TEMPERATURE IN CELSIUS                      <
>     VRB    - VARIABLE WIND DIRECTION                     <
>                                                          <
>>>>>>>>>>>>>>>>>>>>>>>>>>>> KEY <<<<<<<<<<<<<<<<<<<<<<<<<<<





USA.gov is the U.S. government's official web portal to all federal, state and local government web resources and services.